Location: Orange Harbor Mobile Home Park
(26.6923°N, 81.7937°W)
Time: 08:39:53
(UTC+00:00)

SJ 16-02 - Pass Details

Date: 19 September 2020
Orbit: 606 x 616 km, 75.0° (Epoch: 30 October)

Event Time Altitude Azimuth Distance (km) Brightness Sun altitude
Rises 08:57:34 0° 11° (N) 2,868 5.1 -30.9°
Reaches altitude 10° 09:00:52 10° 38° (NE) 1,962 4.6 -30.2°
Maximum altitude 09:03:06 14° 68° (ENE) 1,730 4.5 -29.7°
Drops below altitude 10° 09:05:19 10° 99° (E) 1,961 4.7 -29.2°
Sets 09:08:36 0° 125° (SE) 2,864 5.3 -28.5°
